FW5749 Weather Reports


Display with metric or nautical units.
time (UTC)temp
F
wind
direction
speed
MPH
gust
MPH
rain 1hr
in
rain 24hr
in
rain mn
in
humidity
%
barometer
mb
20220119103600 61 52 4.0 10.0 0.00 0.00 0.00 85 1020.8
20220119103102 61 44 4.0 10.0 0.00 0.00 0.00 84 1020.8
20220119102546 61 26 4.0 9.0 0.00 0.00 0.00 84 1020.9
20220119102053 61 27 3.0 9.0 0.00 0.00 0.00 84 1020.8
20220119101617 61 64 4.0 7.0 0.00 0.00 0.00 84 1020.7
20220119101109 61 42 4.0 10.0 0.00 0.00 0.00 84 1020.6
20220119100549 61 51 5.0 10.0 0.00 0.00 0.00 84 1020.7
20220119100232 61 66 3.0 9.0 0.00 0.00 0.00 84 1020.7
20220119095550 61 30 4.0 9.0 0.00 0.00 0.00 84 1020.7
20220119095049 61 22 4.0 9.0 0.00 0.00 0.00 84 1020.7
20220119094637 61 5 4.0 9.0 0.00 0.00 0.00 84 1020.7
20220119094052 61 19 5.0 9.0 0.00 0.00 0.00 84 1020.6
20220119093548 61 49 3.0 9.0 0.00 0.00 0.00 84 1020.6
20220119093218 61 31 3.0 8.0 0.00 0.00 0.00 84 1020.6
20220119092557 61 15 4.0 8.0 0.00 0.00 0.00 83 1020.6
20220119092048 61 34 3.0 10.0 0.00 0.00 0.00 84 1020.5
20220119091604 61 36 5.0 10.0 0.00 0.00 0.00 83 1020.5
20220119091107 61 37 5.0 9.0 0.00 0.00 0.00 84 1020.6
20220119090548 61 36 4.0 9.0 0.00 0.00 0.00 84 1020.5
20220119090155 61 27 4.0 9.0 0.00 0.00 0.00 84 1020.6
20220119085549 61 24 4.0 8.0 0.00 0.00 0.00 85 1020.6
20220119085107 61 31 3.0 7.0 0.00 0.00 0.00 85 1020.7
20220119084700 60 28 3.0 7.0 0.00 0.00 0.00 86 1020.6
20220119084049 60 18 3.0 7.0 0.00 0.00 0.00 86 1020.6
20220119083549 60 49 3.0 6.0 0.00 0.00 0.00 87 1020.5
20220119083120 60 24 2.0 6.0 0.00 0.00 0.00 87 1020.5
20220119082554 60 31 3.0 6.0 0.00 0.00 0.00 86 1020.4
20220119082110 59 43 2.0 4.0 0.00 0.00 0.00 86 1020.6
20220119081722 59 51 2.0 5.0 0.00 0.00 0.00 85 1020.7
20220119081048 59 51 2.0 5.0 0.00 0.00 0.00 84 1020.6
20220119080549 59 73 2.0 5.0 0.00 0.00 0.00 84 1020.6
20220119080121 59 52 2.0 5.0 0.00 0.00 0.00 85 1020.6
20220119075556 59 46 2.0 5.0 0.00 0.00 0.00 85 1020.6
20220119075050 59 38 2.0 4.0 0.00 0.00 0.00 85 1020.6
20220119074803 58 40 1.0 4.0 0.00 0.00 0.00 85 1020.7
20220119074055 58 44 2.0 4.0 0.00 0.00 0.00 85 1020.8
20220119073546 58 39 2.0 4.0 0.00 0.00 0.00 85 1020.8
20220119073255 58 36 1.0 4.0 0.00 0.00 0.00 85 1020.9
20220119072553 59 34 2.0 4.0 0.00 0.00 0.00 84 1020.9
20220119072057 59 34 2.0 5.0 0.00 0.00 0.00 84 1020.8
20220119071619 58 34 2.0 5.0 0.00 0.00 0.00 84 1020.9
20220119071048 58 40 2.0 4.0 0.00 0.00 0.00 84 1020.8
20220119070558 58 42 2.0 4.0 0.00 0.00 0.00 83 1020.9
20220119070134 58 42 2.0 4.0 0.00 0.00 0.00 83 1021.0
20220119065610 58 51 2.0 4.0 0.00 0.00 0.00 84 1020.9
20220119065050 58 44 2.0 4.0 0.00 0.00 0.00 83 1021.0
20220119064712 58 54 2.0 4.0 0.00 0.00 0.00 83 1021.0
20220119064114 58 55 1.0 4.0 0.00 0.00 0.00 82 1021.1
20220119063605 58 61 1.0 3.0 0.00 0.00 0.00 81 1021.1
20220119063143 58 61 1.0 3.0 0.00 0.00 0.00 80 1021.0
20220119062558 59 61 1.0 4.0 0.00 0.00 0.00 80 1021.2
20220119062049 59 62 1.0 4.0 0.00 0.00 0.00 80 1021.3
20220119061749 59 63 1.0 4.0 0.00 0.00 0.00 78 1021.4
20220119061047 60 67 1.0 4.0 0.00 0.00 0.00 77 1021.2
20220119060549 60 67 2.0 5.0 0.00 0.00 0.00 77 1021.3
20220119060140 60 54 2.0 6.0 0.00 0.00 0.00 77 1021.4
20220119055601 60 44 2.0 6.0 0.00 0.00 0.00 78 1021.3
20220119055047 60 42 2.0 5.0 0.00 0.00 0.00 78 1021.4
20220119054631 60 61 3.0 5.0 0.00 0.00 0.00 77 1021.6
20220119054048 61 40 2.0 6.0 0.00 0.00 0.00 77 1021.5
20220119053546 61 44 2.0 7.0 0.00 0.00 0.00 76 1021.6
20220119053116 61 65 3.0 7.0 0.00 0.00 0.00 76 1021.7
20220119052551 61 56 3.0 5.0 0.00 0.00 0.00 76 1021.7
20220119052053 61 61 2.0 9.0 0.00 0.00 0.00 76 1021.6
20220119051637 61 67 2.0 9.0 0.00 0.00 0.00 76 1021.3
20220119051045 61 66 2.0 7.0 0.00 0.00 0.00 76 1020.9
20220119050628 61 72 2.0 6.0 0.00 0.00 0.00 75 1020.9
20220119050213 61 66 2.0 6.0 0.00 0.00 0.00 75 1020.9
20220119045624 61 54 3.0 9.0 0.00 0.00 0.00 76 1021.0
20220119045054 61 62 3.0 9.0 0.00 0.00 0.00 76 1021.2
20220119044748 61 65 3.0 10.0 0.00 0.00 0.00 77 1021.4
20220119044056 61 55 3.0 10.0 0.00 0.00 0.00 78 1021.7
20220119043605 61 38 3.0 8.0 0.00 0.00 0.00 77 1021.6
20220119043103 61 46 3.0 7.0 0.00 0.00 0.00 78 1021.5
20220119042551 62 68 2.0 9.0 0.00 0.00 0.00 79 1021.7
20220119042051 62 61 3.0 9.0 0.00 0.00 0.00 79 1021.8
20220119041612 62 61 3.0 8.0 0.00 0.00 0.00 79 1021.8
20220119041054 62 63 3.0 7.0 0.00 0.00 0.00 80 1021.8
20220119040548 62 40 3.0 7.0 0.00 0.00 0.00 79 1021.6
20220119040203 62 60 3.0 8.0 0.00 0.00 0.00 79 1021.6
20220119035609 62 44 3.0 9.0 0.00 0.00 0.00 78 1021.7
20220119035048 63 61 3.0 10.0 0.00 0.00 0.00 77 1021.7
20220119034819 63 28 4.0 10.0 0.00 0.00 0.00 77 1022.0
20220119034054 63 31 5.0 10.0 0.00 0.00 0.00 76 1021.9
20220119033551 63 31 6.0 11.0 0.00 0.00 0.00 75 1022.0
20220119033158 63 50 6.0 11.0 0.00 0.00 0.00 75 1022.0
20220119032558 63 44 5.0 10.0 0.00 0.00 0.00 76 1021.9
20220119032054 62 37 5.0 10.0 0.00 0.00 0.00 76 1021.9
20220119031647 62 21 4.0 9.0 0.00 0.00 0.00 77 1021.8
20220119031051 62 58 5.0 9.0 0.00 0.00 0.00 77 1021.9
20220119030549 62 53 3.0 9.0 0.00 0.00 0.00 78 1021.9
20220119030118 62 38 4.0 9.0 0.00 0.00 0.00 78 1021.9
20220119025548 62 32 4.0 7.0 0.00 0.00 0.00 79 1022.0
20220119025105 62 34 3.0 8.0 0.00 0.00 0.00 79 1022.0
20220119024630 62 33 3.0 8.0 0.00 0.00 0.00 80 1022.0
20220119024056 62 47 2.0 7.0 0.00 0.00 0.00 80 1022.0
20220119023554 62 25 3.0 7.0 0.00 0.00 0.00 79 1021.9
20220119023137 62 19 3.0 7.0 0.00 0.00 0.00 79 1021.9
20220119022552 62 19 2.0 7.0 0.00 0.00 0.00 79 1021.8
20220119022049 62 18 3.0 8.0 0.00 0.00 0.00 78 1021.8
20220119021615 62 25 4.0 9.0 0.00 0.00 0.00 77 1021.8
20220119021106 62 22 5.0 9.0 0.00 0.00 0.00 77 1021.8
20220119020549 62 14 4.0 9.0 0.00 0.00 0.00 77 1021.9
20220119020137 62 17 5.0 9.0 0.00 0.00 0.00 78 1021.7
20220119015556 62 9 4.0 8.0 0.00 0.00 0.00 77 1021.8
20220119015048 62 13 4.0 9.0 0.00 0.00 0.00 77 1021.8
20220119014625 62 15 5.0 9.0 0.00 0.00 0.00 76 1021.8
20220119014050 62 11 5.0 8.0 0.00 0.00 0.00 76 1021.8
20220119013618 62 13 5.0 9.0 0.00 0.00 0.00 75 1021.8
20220119013136 62 9 5.0 9.0 0.00 0.00 0.00 75 1021.6
20220119012554 62 9 5.0 10.0 0.00 0.00 0.00 76 1021.7
20220119012056 63 17 6.0 10.0 0.00 0.00 0.00 76 1021.7
20220119011649 63 10 6.0 10.0 0.00 0.00 0.00 76 1021.7
20220119011103 62 5 4.0 9.0 0.00 0.00 0.00 76 1021.7
20220119010553 62 341 5.0 9.0 0.00 0.00 0.00 76 1021.7
20220119010124 63 360 4.0 10.0 0.00 0.00 0.00 76 1021.6
20220119005550 62 9 5.0 10.0 0.00 0.00 0.00 76 1021.6
20220119005053 62 5 6.0 9.0 0.00 0.00 0.00 76 1021.5
20220119004626 62 355 5.0 10.0 0.00 0.00 0.00 76 1021.5
20220119004050 62 348 5.0 10.0 0.00 0.00 0.00 77 1021.5
20220119003551 62 360 4.0 9.0 0.00 0.00 0.00 77 1021.5
20220119003134 62 344 4.0 11.0 0.00 0.00 0.00 78 1021.4
20220119002549 62 360 4.0 11.0 0.00 0.00 0.00 78 1021.5
20220119002048 62 12 6.0 10.0 0.00 0.00 0.00 78 1021.4
20220119001743 62 355 5.0 10.0 0.00 0.00 0.00 78 1021.3
20220119001102 62 12 5.0 10.0 0.00 0.00 0.00 78 1021.4
20220119000548 62 5 5.0 12.0 0.00 0.00 0.00 78 1021.4
20220119000154 63 329 6.0 12.0 0.00 0.00 0.00 78 1021.2
20220118235551 63 17 5.0 10.0 0.00 0.00 0.00 78 1021.3
20220118235112 62 5 5.0 10.0 0.00 0.00 0.00 78 1021.4
20220118234611 63 346 4.0 10.0 0.00 0.00 0.00 78 1021.4
20220118234052 63 10 5.0 11.0 0.00 0.00 0.00 78 1021.3
20220118233600 63 11 6.0 11.0 0.00 0.00 0.00 78 1021.4
20220118233143 63 346 5.0 12.0 0.00 0.00 0.00 77 1021.4
20220118232548 63 360 7.0 12.0 0.00 0.00 0.00 77 1021.3
20220118232105 63 360 6.0 12.0 0.00 0.00 0.00 77 1021.2
20220118231632 63 343 6.0 11.0 0.00 0.00 0.00 77 1021.3
20220118231106 63 5 5.0 11.0 0.00 0.00 0.00 77 1021.1
20220118230552 63 32 5.0 12.0 0.00 0.00 0.00 77 1021.0
20220118230201 63 5 7.0 12.0 0.00 0.00 0.00 76 1020.8
20220118225549 63 360 9.0 12.0 0.00 0.00 0.00 75 1020.8
20220118225050 63 29 8.0 13.0 0.00 0.00 0.00 75 1020.9
20220118224703 63 10 7.0 13.0 0.00 0.00 0.00 75 1020.8
20220118224103 64 5 9.0 13.0 0.00 0.00 0.00 75 1020.7
20220118223548 64 23 7.0 14.0 0.00 0.00 0.00 76 1020.7
20220118223118 64 347 9.0 14.0 0.00 0.00 0.00 75 1020.6
20220118222550 64 350 6.0 12.0 0.00 0.00 0.00 76 1020.5
20220118222122 64 355 7.0 12.0 0.00 0.00 0.00 74 1020.5
20220118221629 65 22 5.0 13.0 0.00 0.00 0.00 74 1020.6
20220118221056 65 18 6.0 13.0 0.00 0.00 0.00 74 1020.4
20220118220601 65 25 8.0 13.0 0.00 0.00 0.00 74 1020.4
20220118220125 65 31 7.0 13.0 0.00 0.00 0.00 73 1020.4
20220118215550 65 25 7.0 12.0 0.00 0.00 0.00 73 1020.3
20220118215049 65 13 6.0 12.0 0.00 0.00 0.00 73 1020.2
20220118214828 66 17 7.0 12.0 0.00 0.00 0.00 72 1020.1
20220118214105 66 5 7.0 12.0 0.00 0.00 0.00 73 1020.1
20220118213554 66 360 5.0 11.0 0.00 0.00 0.00 72 1020.2
20220118213106 66 12 7.0 11.0 0.00 0.00 0.00 72 1020.1
20220118212602 66 333 5.0 11.0 0.00 0.00 0.00 72 1020.0
20220118212048 66 18 5.0 11.0 0.00 0.00 0.00 71 1019.9
20220118211646 66 21 7.0 11.0 0.00 0.00 0.00 71 1020.0
20220118211052 66 5 7.0 11.0 0.00 0.00 0.00 72 1019.9
20220118210550 66 11 6.0 11.0 0.00 0.00 0.00 71 1020.0
20220118210259 66 19 7.0 11.0 0.00 0.00 0.00 71 1020.0
20220118205559 66 40 5.0 11.0 0.00 0.00 0.00 71 1020.1
20220118205050 66 20 6.0 11.0 0.00 0.00 0.00 71 1020.0
20220118204626 66 22 5.0 11.0 0.00 0.00 0.00 70 1019.9
20220118204122 66 5 6.0 13.0 0.00 0.00 0.00 71 1019.9
20220118203607 66 30 5.0 13.0 0.00 0.00 0.00 72 1019.7
20220118203151 66 17 6.0 11.0 0.00 0.00 0.00 70 1019.9
20220118202613 66 13 7.0 12.0 0.00 0.00 0.00 70 1019.8
20220118202049 66 31 6.0 12.0 0.00 0.00 0.00 69 1019.8
20220118201618 66 11 7.0 12.0 0.00 0.00 0.00 71 1019.9
20220118201059 66 29 8.0 12.0 0.00 0.00 0.00 69 1019.9
20220118200607 66 352 5.0 12.0 0.00 0.00 0.00 71 1019.8
20220118200155 67 58 6.0 12.0 0.00 0.00 0.00 70 1019.9
20220118195548 67 18 5.0 12.0 0.00 0.00 0.00 70 1019.9
20220118195059 66 13 8.0 12.0 0.00 0.00 0.00 71 1019.8
20220118194617 66 27 7.0 13.0 0.00 0.00 0.00 72 1019.8
20220118194049 66 51 8.0 13.0 0.00 0.00 0.00 70 1020.0
20220118193619 66 25 6.0 12.0 0.00 0.00 0.00 70 1019.9
20220118193154 66 5 6.0 14.0 0.00 0.00 0.00 70 1019.9
20220118192600 66 21 9.0 14.0 0.00 0.00 0.00 70 1019.9
20220118192106 67 33 7.0 13.0 0.00 0.00 0.00 71 1019.9
20220118191618 66 31 9.0 13.0 0.00 0.00 0.00 71 1020.0
20220118191109 66 40 7.0 14.0 0.00 0.00 0.00 71 1019.8
20220118190549 66 355 8.0 14.0 0.00 0.00 0.00 70 1020.0
20220118190352 66 5 7.0 14.0 0.00 0.00 0.00 70 1020.2
20220118185548 66 20 7.0 14.0 0.00 0.00 0.00 71 1020.2
20220118185049 67 38 7.0 14.0 0.00 0.00 0.00 70 1020.2
20220118184725 66 47 7.0 14.0 0.00 0.00 0.00 71 1020.3
20220118184059 67 10 6.0 13.0 0.00 0.00 0.00 72 1020.4
20220118183548 66 32 8.0 13.0 0.00 0.00 0.00 71 1020.6
20220118183127 66 347 7.0 14.0 0.00 0.00 0.00 71 1020.6
20220118182601 66 43 9.0 14.0 0.00 0.00 0.00 71 1020.6
20220118182048 66 336 7.0 13.0 0.00 0.00 0.00 71 1020.7
20220118181618 66 63 8.0 13.0 0.00 0.00 0.00 69 1020.6
20220118181048 66 23 7.0 15.0 0.00 0.00 0.00 70 1020.8
20220118180549 66 344 9.0 15.0 0.00 0.00 0.00 70 1020.7
20220118180145 66 348 8.0 14.0 0.00 0.00 0.00 70 1020.9
20220118175548 66 334 6.0 14.0 0.00 0.00 0.00 71 1021.1
20220118175049 66 10 8.0 13.0 0.00 0.00 0.00 70 1021.0
20220118174654 67 21 8.0 13.0 0.00 0.00 0.00 69 1021.1
20220118174048 66 13 8.0 13.0 0.00 0.00 0.00 70 1021.1
20220118173550 66 22 8.0 12.0 0.00 0.00 0.00 70 1021.3
20220118173138 66 26 8.0 12.0 0.00 0.00 0.00 69 1021.4
20220118172550 66 15 8.0 13.0 0.00 0.00 0.00 70 1021.5
20220118172114 66 23 9.0 13.0 0.00 0.00 0.00 70 1021.5
20220118171651 66 28 8.0 13.0 0.00 0.00 0.00 69 1021.5
20220118171058 66 26 6.0 13.0 0.00 0.00 0.00 70 1021.6
20220118170623 66 28 7.0 13.0 0.00 0.00 0.00 70 1021.7
20220118170214 66 35 8.0 14.0 0.00 0.00 0.00 70 1021.5
20220118165548 66 32 7.0 14.0 0.00 0.00 0.00 68 1021.6
20220118165048 66 59 4.0 14.0 0.00 0.00 0.00 69 1021.7
20220118164606 66 17 6.0 14.0 0.00 0.00 0.00 70 1021.6
20220118164049 65 5 7.0 15.0 0.00 0.00 0.00 70 1021.7
20220118163548 65 44 9.0 15.0 0.00 0.00 0.00 69 1021.7
20220118163148 66 35 8.0 14.0 0.00 0.00 0.00 70 1021.7
20220118162548 66 38 8.0 14.0 0.00 0.00 0.00 69 1021.8
20220118162048 66 32 6.0 14.0 0.00 0.00 0.00 71 1021.8
20220118161657 66 34 8.0 15.0 0.00 0.00 0.00 70 1021.8
20220118161050 66 29 9.0 15.0 0.00 0.00 0.00 70 1021.8
20220118160550 66 57 7.0 15.0 0.00 0.00 0.00 71 1021.9
20220118160132 65 64 8.0 15.0 0.00 0.00 0.00 71 1022.0
20220118155549 66 46 8.0 15.0 0.00 0.00 0.00 70 1022.0
20220118155049 66 93 7.0 15.0 0.00 0.00 0.00 71 1022.1
20220118154743 67 94 6.0 12.0 0.00 0.00 0.00 72 1021.9
20220118154049 66 19 6.0 12.0 0.00 0.00 0.00 72 1022.1
20220118153551 66 32 6.0 13.0 0.00 0.00 0.00 73 1022.1
20220118153201 65 39 7.0 13.0 0.00 0.00 0.00 72 1022.0
20220118152558 65 32 7.0 14.0 0.00 0.00 0.00 72 1021.9
20220118152117 65 67 6.0 15.0 0.00 0.00 0.00 72 1022.0
20220118151638 65 69 7.0 15.0 0.00 0.00 0.00 72 1022.0
20220118151057 65 360 4.0 14.0 0.00 0.00 0.00 72 1022.0
20220118150549 65 53 5.0 13.0 0.00 0.00 0.00 73 1022.0
20220118150112 65 104 6.0 13.0 0.00 0.00 0.00 74 1021.9
20220118145601 65 30 5.0 13.0 0.00 0.00 0.00 74 1021.9
20220118145054 65 61 5.0 14.0 0.00 0.00 0.00 74 1021.9
20220118144620 65 22 7.0 14.0 0.00 0.00 0.00 75 1021.9
20220118144105 64 82 6.0 14.0 0.00 0.00 0.00 74 1022.0
20220118143550 64 53 7.0 13.0 0.00 0.00 0.00 75 1021.9
20220118143103 64 29 6.0 13.0 0.00 0.00 0.00 75 1021.9
20220118142548 64 59 6.0 15.0 0.00 0.00 0.00 75 1021.9
20220118142049 64 49 8.0 15.0 0.00 0.00 0.00 76 1021.8
20220118141556 64 24 6.0 14.0 0.00 0.00 0.00 76 1021.8
20220118141120 63 19 6.0 12.0 0.00 0.00 0.00 76 1021.8
20220118140553 63 11 6.0 14.0 0.00 0.00 0.00 76 1021.9
20220118140141 63 20 5.0 14.0 0.00 0.00 0.00 77 1021.7
20220118135609 63 43 7.0 14.0 0.00 0.00 0.00 77 1021.6
20220118135110 63 48 7.0 15.0 0.00 0.00 0.00 78 1021.7
20220118134655 63 15 7.0 15.0 0.00 0.00 0.00 78 1021.5
20220118134049 63 22 5.0 12.0 0.00 0.00 0.00 78 1021.6
20220118133548 62 51 6.0 14.0 0.00 0.00 0.00 79 1021.6
20220118133159 62 49 7.0 14.0 0.00 0.00 0.00 78 1021.4
20220118132607 62 51 6.0 15.0 0.00 0.00 0.00 79 1021.5
20220118132047 62 19 8.0 15.0 0.00 0.00 0.00 80 1021.3
20220118131657 62 31 6.0 15.0 0.00 0.00 0.00 80 1021.3
20220118131048 62 23 9.0 15.0 0.00 0.00 0.00 80 1021.1
20220118130625 62 42 9.0 15.0 0.00 0.00 0.00 80 1021.0
20220118130148 62 13 6.0 13.0 0.00 0.00 0.00 81 1021.2
20220118125548 62 51 8.0 14.0 0.00 0.00 0.00 81 1021.3
20220118125057 62 30 8.0 14.0 0.00 0.00 0.00 81 1021.2
20220118124702 62 30 8.0 14.0 0.00 0.00 0.00 81 1021.0
20220118124105 62 52 6.0 13.0 0.00 0.00 0.00 81 1020.8
20220118123553 63 32 7.0 13.0 0.00 0.00 0.00 81 1020.5
20220118123213 63 58 6.0 11.0 0.00 0.00 0.00 81 1020.6
20220118122554 63 53 4.0 10.0 0.00 0.00 0.00 82 1020.7
20220118122056 63 68 5.0 11.0 0.00 0.00 0.00 81 1020.7
20220118121617 63 54 6.0 12.0 0.00 0.00 0.00 82 1020.5
20220118121104 63 51 6.0 12.0 0.00 0.00 0.00 82 1020.5
20220118120556 63 42 6.0 11.0 0.00 0.00 0.00 82 1020.3
20220118120219 63 41 6.0 11.0 0.00 0.00 0.00 83 1020.2
20220118115548 63 50 4.0 11.0 0.00 0.00 0.00 83 1020.2
20220118115048 63 39 6.0 11.0 0.00 0.00 0.00 83 1020.0
20220118114655 63 84 4.0 12.0 0.00 0.00 0.00 83 1020.0
20220118114048 63 75 4.0 12.0 0.00 0.00 0.00 83 1020.1
20220118113547 63 55 3.0 9.0 0.00 0.00 0.00 84 1020.1
20220118113129 63 56 4.0 10.0 0.00 0.00 0.00 84 1020.0
20220118112551 63 53 3.0 10.0 0.00 0.00 0.00 84 1019.8
20220118112115 63 47 3.0 9.0 0.00 0.00 0.00 84 1019.7
20220118111617 63 63 4.0 9.0 0.00 0.00 0.00 84 1019.7
20220118111048 63 61 4.0 8.0 0.00 0.00 0.00 84 1019.5
20220118110608 63 60 3.0 7.0 0.00 0.00 0.00 83 1019.4
20220118110126 64 61 3.0 9.0 0.00 0.00 0.00 82 1019.5
20220118105549 64 53 4.0 10.0 0.00 0.00 0.00 81 1019.4
20220118105049 65 49 5.0 11.0 0.00 0.00 0.00 79 1019.3
20220118104748 65 34 6.0 11.0 0.00 0.00 0.00 78 1019.2
20220118104054 65 20 5.0 9.0 0.00 0.00 0.00 78 1019.4